JES3105 SABE-SACO

Flight info

Callsign JES3105
Flight time 1h 35m
Altitude 34000
Route ATOVO4B ATOVO UW5 ASISA ASISA1Q
Aircraft A21N/M-SDE2E3FGHIRWXY/LB1

Departure

Time 2026-05-03 21:43
Airport Aeroparque Jorge Newbery (SABE)

Arrival

Time 2026-05-03 23:18
Airport Ingeniero Aeronáutico Ambrosio L.V. Taravella International Airport (SACO)
Time Latitude Longitude Altitude Speed Heading
2026-05-03 20:30 -34.55769 -58.41526 29 ft 0 kts 211°
2026-05-03 21:09 -34.55766 -58.41524 26 ft 2 kts 210°
2026-05-03 21:09 -34.55754 -58.41515 29 ft 2 kts 212°
2026-05-03 21:09 -34.55740 -58.41504 28 ft 2 kts 219°
2026-05-03 21:10 -34.55731 -58.41488 30 ft 2 kts 281°
2026-05-03 21:10 -34.55734 -58.41479 32 ft 0 kts 296°
2026-05-03 21:12 -34.55733 -58.41481 31 ft 1 kts 296°
2026-05-03 21:12 -34.55729 -58.41490 30 ft 2 kts 296°
2026-05-03 21:12 -34.55725 -58.41500 28 ft 0 kts 296°
2026-05-03 21:14 -34.55725 -58.41501 30 ft 1 kts 296°
2026-05-03 21:14 -34.55721 -58.41509 29 ft 1 kts 296°
2026-05-03 21:14 -34.55719 -58.41522 26 ft 2 kts 277°
2026-05-03 21:15 -34.55721 -58.41541 28 ft 3 kts 252°
2026-05-03 21:15 -34.55733 -58.41558 27 ft 3 kts 216°
2026-05-03 21:15 -34.55753 -58.41574 26 ft 4 kts 213°
2026-05-03 21:15 -34.55782 -58.41587 28 ft 5 kts 179°
2026-05-03 21:16 -34.55808 -58.41567 28 ft 5 kts 132°
2026-05-03 21:16 -34.55826 -58.41527 27 ft 6 kts 116°
2026-05-03 21:16 -34.55844 -58.41480 27 ft 7 kts 116°
2026-05-03 21:16 -34.55867 -58.41428 27 ft 7 kts 118°
2026-05-03 21:17 -34.55892 -58.41372 28 ft 8 kts 118°
2026-05-03 21:17 -34.55918 -58.41311 29 ft 8 kts 119°
2026-05-03 21:17 -34.55951 -58.41249 27 ft 9 kts 126°
2026-05-03 21:17 -34.55991 -58.41184 29 ft 10 kts 127°
2026-05-03 21:18 -34.56026 -58.41129 28 ft 7 kts 127°
2026-05-03 21:18 -34.56052 -58.41087 26 ft 0 kts 127°
2026-05-03 21:18 -34.56055 -58.41083 26 ft 1 kts 127°
2026-05-03 21:18 -34.56061 -58.41073 26 ft 2 kts 127°
2026-05-03 21:19 -34.56070 -58.41059 26 ft 0 kts 127°
2026-05-03 21:20 -34.56075 -58.41050 26 ft 3 kts 127°
2026-05-03 21:20 -34.56093 -58.41022 26 ft 8 kts 126°
2026-05-03 21:21 -34.56130 -58.40959 26 ft 8 kts 123°
2026-05-03 21:21 -34.56157 -58.40898 27 ft 9 kts 108°
2026-05-03 21:21 -34.56164 -58.40860 28 ft 4 kts 98°
2026-05-03 21:21 -34.56172 -58.40822 29 ft 5 kts 112°
2026-05-03 21:22 -34.56189 -58.40790 28 ft 0 kts 123°
2026-05-03 21:22 -34.56195 -58.40778 28 ft 0 kts 123°
2026-05-03 21:24 -34.56198 -58.40772 26 ft 1 kts 123°
2026-05-03 21:24 -34.56206 -58.40759 27 ft 2 kts 123°
2026-05-03 21:25 -34.56208 -58.40754 28 ft 0 kts 123°
2026-05-03 21:25 -34.56209 -58.40752 30 ft 1 kts 123°
2026-05-03 21:25 -34.56216 -58.40739 28 ft 2 kts 123°
2026-05-03 21:26 -34.56227 -58.40719 29 ft 3 kts 123°
2026-05-03 21:26 -34.56242 -58.40693 29 ft 4 kts 124°
2026-05-03 21:26 -34.56254 -58.40671 26 ft 0 kts 124°
2026-05-03 21:28 -34.56259 -58.40663 28 ft 2 kts 124°
2026-05-03 21:28 -34.56268 -58.40647 29 ft 3 kts 124°
2026-05-03 21:28 -34.56282 -58.40622 28 ft 4 kts 125°
2026-05-03 21:29 -34.56298 -58.40595 31 ft 0 kts 127°
2026-05-03 21:29 -34.56301 -58.40590 29 ft 2 kts 127°
2026-05-03 21:29 -34.56306 -58.40583 29 ft 0 kts 129°
2026-05-03 21:30 -34.56309 -58.40579 29 ft 2 kts 129°
2026-05-03 21:30 -34.56328 -58.40555 26 ft 5 kts 136°
2026-05-03 21:31 -34.56354 -58.40525 28 ft 6 kts 137°
2026-05-03 21:31 -34.56370 -58.40508 30 ft 3 kts 138°
2026-05-03 21:31 -34.56378 -58.40500 27 ft 0 kts 138°
2026-05-03 21:33 -34.56378 -58.40499 27 ft 1 kts 138°
2026-05-03 21:34 -34.56384 -58.40493 28 ft 3 kts 138°
2026-05-03 21:34 -34.56406 -58.40469 26 ft 0 kts 138°
2026-05-03 21:38 -34.56407 -58.40468 26 ft 0 kts 138°
2026-05-03 21:38 -34.56411 -58.40463 29 ft 1 kts 138°
2026-05-03 21:38 -34.56422 -58.40452 30 ft 2 kts 138°
2026-05-03 21:38 -34.56437 -58.40435 29 ft 3 kts 138°
2026-05-03 21:39 -34.56457 -58.40413 30 ft 4 kts 138°
2026-05-03 21:39 -34.56472 -58.40396 26 ft 0 kts 138°
2026-05-03 21:40 -34.56477 -58.40391 26 ft 2 kts 138°
2026-05-03 21:41 -34.56494 -58.40378 30 ft 3 kts 156°
2026-05-03 21:41 -34.56518 -58.40376 28 ft 4 kts 187°
2026-05-03 21:41 -34.56543 -58.40391 26 ft 4 kts 218°
2026-05-03 21:41 -34.56557 -58.40423 30 ft 4 kts 273°
2026-05-03 21:42 -34.56543 -58.40457 26 ft 5 kts 302°
2026-05-03 21:42 -34.56520 -58.40500 27 ft 14 kts 303°
2026-05-03 21:42 -34.56334 -58.40836 27 ft 80 kts 304°
2026-05-03 21:42 -34.55888 -58.41634 29 ft 146 kts 304°
2026-05-03 21:43 -34.55290 -58.42710 466 ft 160 kts 306°
2026-05-03 21:43 -34.54646 -58.43840 1040 ft 169 kts 308°
2026-05-03 21:43 -34.53979 -58.45066 1678 ft 174 kts 307°
2026-05-03 21:43 -34.53329 -58.46304 2291 ft 180 kts 306°
2026-05-03 21:44 -34.52604 -58.47617 2827 ft 196 kts 307°
2026-05-03 21:44 -34.51791 -58.49071 3073 ft 222 kts 306°
2026-05-03 21:44 -34.50876 -58.50709 2974 ft 242 kts 306°
2026-05-03 21:44 -34.49927 -58.52414 2967 ft 245 kts 306°
2026-05-03 21:45 -34.48912 -58.54060 2959 ft 243 kts 319°
2026-05-03 21:45 -34.47484 -58.55131 3001 ft 242 kts 336°
2026-05-03 21:45 -34.45908 -58.55864 3296 ft 244 kts 339°
2026-05-03 21:45 -34.44295 -58.56539 3628 ft 246 kts 340°
2026-05-03 21:46 -34.42667 -58.57201 3945 ft 248 kts 340°
2026-05-03 21:46 -34.41021 -58.57858 4291 ft 250 kts 340°
2026-05-03 21:46 -34.39360 -58.58509 4788 ft 252 kts 340°
2026-05-03 21:46 -34.37681 -58.59151 5278 ft 254 kts 340°
2026-05-03 21:47 -34.35982 -58.59789 5773 ft 256 kts 340°
2026-05-03 21:47 -34.34267 -58.60426 6289 ft 258 kts 340°
2026-05-03 21:47 -34.32555 -58.61051 6764 ft 262 kts 341°
2026-05-03 21:47 -34.30737 -58.61522 7257 ft 266 kts 348°
2026-05-03 21:48 -34.28890 -58.61806 7740 ft 269 kts 349°
2026-05-03 21:48 -34.27021 -58.62056 8235 ft 272 kts 350°
2026-05-03 21:48 -34.25132 -58.62299 8737 ft 274 kts 350°
2026-05-03 21:48 -34.23225 -58.62537 9244 ft 277 kts 350°
2026-05-03 21:49 -34.21299 -58.62771 9771 ft 279 kts 350°
2026-05-03 21:49 -34.19379 -58.62999 10248 ft 284 kts 350°
2026-05-03 21:49 -34.17348 -58.63240 10779 ft 294 kts 350°
2026-05-03 21:49 -34.15317 -58.63479 11471 ft 299 kts 350°
2026-05-03 21:50 -34.13258 -58.63826 12200 ft 297 kts 338°
2026-05-03 21:50 -34.11552 -58.65094 12934 ft 287 kts 308°
2026-05-03 21:50 -34.10639 -58.67178 13707 ft 281 kts 285°
2026-05-03 21:50 -34.10115 -58.69450 14419 ft 281 kts 281°
2026-05-03 21:51 -34.09738 -58.71762 15118 ft 281 kts 278°
2026-05-03 21:51 -34.09443 -58.74088 15839 ft 280 kts 276°
2026-05-03 21:51 -34.09199 -58.76417 16578 ft 279 kts 275°
2026-05-03 21:51 -34.08986 -58.78740 17338 ft 278 kts 274°
2026-05-03 21:52 -34.08789 -58.81052 18100 ft 276 kts 273°
2026-05-03 21:52 -34.08662 -58.82606 18593 ft 274 kts 273°
2026-05-03 21:52 -34.08422 -58.85615 19498 ft 270 kts 273°
2026-05-03 21:52 -34.08303 -58.87131 19977 ft 267 kts 272°
2026-05-03 21:53 -34.08132 -58.89319 20678 ft 263 kts 272°
2026-05-03 21:53 -34.07961 -58.91498 21412 ft 258 kts 272°
2026-05-03 21:53 -34.07793 -58.93661 21965 ft 260 kts 272°
2026-05-03 21:53 -34.07623 -58.95861 22381 ft 267 kts 272°
2026-05-03 21:54 -34.07449 -58.98116 22783 ft 274 kts 272°
2026-05-03 21:54 -34.07268 -59.00435 23190 ft 281 kts 272°
2026-05-03 21:54 -34.07083 -59.02810 23610 ft 288 kts 272°
2026-05-03 21:54 -34.06892 -59.05244 23868 ft 298 kts 272°
2026-05-03 21:55 -34.06693 -59.07769 24134 ft 307 kts 272°
2026-05-03 21:55 -34.06473 -59.10360 24437 ft 315 kts 275°
2026-05-03 21:55 -34.06046 -59.12986 24739 ft 324 kts 282°
2026-05-03 21:55 -34.05259 -59.15581 25043 ft 335 kts 291°
2026-05-03 21:56 -34.04037 -59.18026 25341 ft 346 kts 299°
2026-05-03 21:56 -34.02582 -59.20375 25644 ft 353 kts 302°
2026-05-03 21:56 -34.01008 -59.22693 25969 ft 359 kts 304°
2026-05-03 21:56 -33.99376 -59.24997 26287 ft 364 kts 304°
2026-05-03 21:57 -33.97711 -59.27321 26609 ft 368 kts 304°
2026-05-03 21:57 -33.96033 -59.29669 26927 ft 371 kts 304°
2026-05-03 21:57 -33.94349 -59.32044 27260 ft 374 kts 304°
2026-05-03 21:57 -33.92677 -59.34422 27518 ft 378 kts 304°
2026-05-03 21:58 -33.90977 -59.36853 27824 ft 381 kts 303°
2026-05-03 21:58 -33.89267 -59.39305 28135 ft 383 kts 303°
2026-05-03 21:58 -33.87548 -59.41771 28436 ft 386 kts 303°
2026-05-03 21:58 -33.85820 -59.44251 28755 ft 388 kts 303°
2026-05-03 21:59 -33.84080 -59.46745 29072 ft 390 kts 303°
2026-05-03 21:59 -33.82332 -59.49248 29402 ft 392 kts 303°
2026-05-03 21:59 -33.80575 -59.51763 29727 ft 393 kts 303°
2026-05-03 21:59 -33.78810 -59.54285 30055 ft 395 kts 303°
2026-05-03 22:00 -33.77030 -59.56829 30291 ft 399 kts 303°
2026-05-03 22:00 -33.75232 -59.59401 30418 ft 405 kts 303°
2026-05-03 22:00 -33.73406 -59.62010 30530 ft 410 kts 303°
2026-05-03 22:00 -33.71558 -59.64648 30631 ft 416 kts 303°
2026-05-03 22:01 -33.67775 -59.70034 30859 ft 426 kts 303°
2026-05-03 22:01 -33.65851 -59.72763 31059 ft 428 kts 303°
2026-05-03 22:01 -33.63928 -59.75485 31375 ft 428 kts 303°
2026-05-03 22:02 -33.62002 -59.78206 31728 ft 427 kts 303°
2026-05-03 22:02 -33.60084 -59.80917 32081 ft 426 kts 303°
2026-05-03 22:02 -33.58168 -59.83624 32421 ft 425 kts 303°
2026-05-03 22:02 -33.56258 -59.86324 32749 ft 424 kts 303°
2026-05-03 22:03 -33.54353 -59.89016 33052 ft 423 kts 303°
2026-05-03 22:03 -33.52449 -59.91706 33379 ft 422 kts 303°
2026-05-03 22:03 -33.50550 -59.94385 33694 ft 421 kts 303°
2026-05-03 22:03 -33.48679 -59.97025 33981 ft 421 kts 303°
2026-05-03 22:04 -33.44882 -60.02379 34050 ft 422 kts 303°
2026-05-03 22:04 -33.41080 -60.07729 34043 ft 422 kts 303°
2026-05-03 22:05 -33.37271 -60.13079 34042 ft 422 kts 302°
2026-05-03 22:05 -33.33451 -60.18437 34036 ft 423 kts 303°
2026-05-03 22:06 -33.29636 -60.23778 34045 ft 421 kts 303°
2026-05-03 22:06 -33.25822 -60.29110 34040 ft 421 kts 303°
2026-05-03 22:07 -33.22013 -60.34429 34040 ft 421 kts 303°
2026-05-03 22:07 -33.18225 -60.39713 34040 ft 422 kts 303°
2026-05-03 22:08 -33.14405 -60.45033 34036 ft 422 kts 303°
2026-05-03 22:08 -33.10578 -60.50353 34037 ft 421 kts 303°
2026-05-03 22:09 -33.06759 -60.55653 34034 ft 421 kts 303°
2026-05-03 22:10 -33.01017 -60.63611 34047 ft 425 kts 303°
2026-05-03 22:10 -32.97128 -60.69006 34051 ft 437 kts 303°
2026-05-03 22:11 -32.93131 -60.74527 34048 ft 440 kts 303°
2026-05-03 22:11 -32.89506 -60.80296 34047 ft 431 kts 296°
2026-05-03 22:12 -32.86392 -60.86373 34047 ft 430 kts 294°
2026-05-03 22:12 -32.83376 -60.92503 34045 ft 429 kts 294°
2026-05-03 22:13 -32.80366 -60.98637 34027 ft 429 kts 294°
2026-05-03 22:13 -32.77340 -61.04763 34023 ft 430 kts 294°
2026-05-03 22:14 -32.74306 -61.10875 34024 ft 429 kts 294°
2026-05-03 22:14 -32.71269 -61.16979 34013 ft 429 kts 294°
2026-05-03 22:15 -32.68244 -61.23051 34022 ft 430 kts 294°
2026-05-03 22:15 -32.65199 -61.29153 34026 ft 430 kts 294°
2026-05-03 22:16 -32.62148 -61.35257 34027 ft 430 kts 294°
2026-05-03 22:16 -32.59100 -61.41342 34021 ft 429 kts 294°
2026-05-03 22:17 -32.56050 -61.47426 34020 ft 429 kts 294°
2026-05-03 22:17 -32.53001 -61.53497 34022 ft 429 kts 294°
2026-05-03 22:18 -32.49944 -61.59574 34020 ft 429 kts 294°
2026-05-03 22:18 -32.46886 -61.65642 34021 ft 429 kts 295°
2026-05-03 22:19 -32.43823 -61.71709 34017 ft 429 kts 295°
2026-05-03 22:19 -32.40778 -61.77732 34018 ft 429 kts 295°
2026-05-03 22:20 -32.37711 -61.83788 34019 ft 429 kts 295°
2026-05-03 22:20 -32.34645 -61.89832 34021 ft 428 kts 295°
2026-05-03 22:21 -32.31573 -61.95879 34018 ft 429 kts 294°
2026-05-03 22:21 -32.28497 -62.01931 34017 ft 429 kts 294°
2026-05-03 22:22 -32.25415 -62.07984 34020 ft 429 kts 294°
2026-05-03 22:22 -32.22334 -62.14026 34015 ft 430 kts 294°
2026-05-03 22:23 -32.19246 -62.20071 34015 ft 430 kts 294°
2026-05-03 22:23 -32.16154 -62.26112 34017 ft 429 kts 295°
2026-05-03 22:24 -32.13083 -62.32105 34014 ft 428 kts 295°
2026-05-03 22:24 -32.09995 -62.38122 34017 ft 428 kts 295°
2026-05-03 22:25 -32.06904 -62.44135 34016 ft 428 kts 295°
2026-05-03 22:25 -32.03390 -62.49859 33864 ft 438 kts 307°
2026-05-03 22:25 -32.01156 -62.52324 33044 ft 442 kts 311°
2026-05-03 22:26 -31.98844 -62.54696 32510 ft 437 kts 312°
2026-05-03 22:26 -31.96564 -62.57007 32033 ft 430 kts 312°
2026-05-03 22:26 -31.94303 -62.59294 31363 ft 427 kts 312°
2026-05-03 22:26 -31.92048 -62.61586 30611 ft 428 kts 312°
2026-05-03 22:27 -31.89802 -62.63880 29871 ft 427 kts 312°
2026-05-03 22:27 -31.87566 -62.66174 29139 ft 425 kts 312°
2026-05-03 22:27 -31.85350 -62.68454 28435 ft 421 kts 312°
2026-05-03 22:27 -31.83156 -62.70715 27792 ft 417 kts 312°
2026-05-03 22:28 -31.81005 -62.72935 27177 ft 414 kts 312°
2026-05-03 22:28 -31.78854 -62.75159 26570 ft 410 kts 312°
2026-05-03 22:28 -31.76722 -62.77367 25969 ft 407 kts 312°
2026-05-03 22:28 -31.74604 -62.79565 25384 ft 403 kts 312°
2026-05-03 22:29 -31.72512 -62.81740 24823 ft 400 kts 312°
2026-05-03 22:29 -31.70437 -62.83900 24274 ft 397 kts 312°
2026-05-03 22:29 -31.68384 -62.86039 23741 ft 393 kts 312°
2026-05-03 22:29 -31.66343 -62.88172 23061 ft 390 kts 312°
2026-05-03 22:30 -31.64328 -62.90295 22385 ft 388 kts 312°
2026-05-03 22:30 -31.62354 -62.92385 21787 ft 384 kts 312°
2026-05-03 22:30 -31.60383 -62.94482 21182 ft 381 kts 312°
2026-05-03 22:30 -31.58374 -62.96499 20574 ft 382 kts 320°
2026-05-03 22:31 -31.55952 -62.97857 19981 ft 390 kts 338°
2026-05-03 22:31 -31.53318 -62.98647 19423 ft 389 kts 342°
2026-05-03 22:31 -31.50686 -62.99339 18876 ft 386 kts 342°
2026-05-03 22:31 -31.48078 -63.00023 18330 ft 382 kts 342°
2026-05-03 22:32 -31.45497 -63.00710 17700 ft 379 kts 342°
2026-05-03 22:32 -31.42937 -63.01408 17149 ft 376 kts 342°
2026-05-03 22:32 -31.40400 -63.02114 16564 ft 373 kts 342°
2026-05-03 22:32 -31.37890 -63.02829 15982 ft 370 kts 342°
2026-05-03 22:33 -31.35407 -63.03553 15403 ft 366 kts 342°
2026-05-03 22:33 -31.32950 -63.04287 14837 ft 363 kts 342°
2026-05-03 22:33 -31.30514 -63.05031 14283 ft 359 kts 342°
2026-05-03 22:33 -31.28104 -63.05785 13722 ft 356 kts 342°
2026-05-03 22:34 -31.25720 -63.06539 13109 ft 353 kts 342°
2026-05-03 22:34 -31.23392 -63.07286 12534 ft 349 kts 342°
2026-05-03 22:34 -31.21064 -63.08035 12143 ft 346 kts 342°
2026-05-03 22:34 -31.18748 -63.08785 12029 ft 346 kts 342°
2026-05-03 22:35 -31.16428 -63.09541 12020 ft 346 kts 342°
2026-05-03 22:35 -31.14108 -63.10292 12019 ft 346 kts 342°
2026-05-03 22:35 -31.11786 -63.11045 12016 ft 346 kts 342°
2026-05-03 22:35 -31.09467 -63.11795 12019 ft 346 kts 342°
2026-05-03 22:36 -31.07143 -63.12544 12016 ft 346 kts 342°
2026-05-03 22:36 -31.05608 -63.13040 12022 ft 346 kts 342°
2026-05-03 22:36 -31.03291 -63.13786 12021 ft 346 kts 342°
2026-05-03 22:36 -31.00964 -63.14528 12020 ft 346 kts 342°
2026-05-03 22:37 -30.97859 -63.15522 12019 ft 346 kts 342°
2026-05-03 22:37 -30.96324 -63.16014 12021 ft 346 kts 342°
2026-05-03 22:37 -30.93999 -63.16757 12018 ft 346 kts 342°
2026-05-03 22:37 -30.90920 -63.17742 12021 ft 346 kts 342°
2026-05-03 22:38 -30.88596 -63.18480 12017 ft 346 kts 342°
2026-05-03 22:38 -30.87026 -63.18978 12015 ft 346 kts 342°
2026-05-03 22:38 -30.84703 -63.19722 12016 ft 346 kts 342°
2026-05-03 22:38 -30.82380 -63.20465 12018 ft 346 kts 342°
2026-05-03 22:39 -30.80055 -63.21213 12017 ft 346 kts 342°
2026-05-03 22:39 -30.77730 -63.21962 12019 ft 346 kts 342°
2026-05-03 22:39 -30.75407 -63.22708 12011 ft 346 kts 341°
2026-05-03 22:39 -30.73198 -63.23761 12015 ft 342 kts 324°
2026-05-03 22:40 -30.71372 -63.25495 12024 ft 339 kts 314°
2026-05-03 22:40 -30.69720 -63.27402 12013 ft 339 kts 312°
2026-05-03 22:40 -30.68069 -63.29354 12022 ft 339 kts 312°
2026-05-03 22:40 -30.66419 -63.31309 12020 ft 339 kts 312°
2026-05-03 22:41 -30.64770 -63.33265 12016 ft 339 kts 312°
2026-05-03 22:41 -30.63120 -63.35221 12015 ft 339 kts 312°
2026-05-03 22:41 -30.61468 -63.37178 12016 ft 339 kts 312°
2026-05-03 22:41 -30.59815 -63.39133 12014 ft 339 kts 312°
2026-05-03 22:42 -30.58165 -63.41086 12018 ft 339 kts 312°
2026-05-03 22:42 -30.56511 -63.43041 12015 ft 339 kts 312°
2026-05-03 22:42 -30.54856 -63.44993 12020 ft 339 kts 312°
2026-05-03 22:42 -30.53190 -63.46940 12023 ft 340 kts 312°
2026-05-03 22:43 -30.51521 -63.48887 12010 ft 340 kts 312°
2026-05-03 22:43 -30.49854 -63.50831 12020 ft 340 kts 312°
2026-05-03 22:43 -30.48410 -63.52961 12013 ft 335 kts 295°
2026-05-03 22:43 -30.47722 -63.55501 12026 ft 330 kts 277°
2026-05-03 22:44 -30.47500 -63.58153 12019 ft 330 kts 272°
2026-05-03 22:44 -30.47361 -63.60778 12019 ft 331 kts 272°
2026-05-03 22:44 -30.47226 -63.63441 12019 ft 331 kts 272°
2026-05-03 22:44 -30.47093 -63.66102 12012 ft 331 kts 272°
2026-05-03 22:45 -30.47113 -63.68759 12015 ft 330 kts 259°
2026-05-03 22:45 -30.47833 -63.71264 12012 ft 329 kts 245°
2026-05-03 22:45 -30.48872 -63.73632 12026 ft 329 kts 242°
2026-05-03 22:45 -30.49952 -63.75973 12009 ft 329 kts 242°
2026-05-03 22:46 -30.51157 -63.78266 12021 ft 329 kts 235°
2026-05-03 22:46 -30.52547 -63.80377 12023 ft 329 kts 232°
2026-05-03 22:46 -30.53959 -63.82428 12011 ft 329 kts 232°
2026-05-03 22:46 -30.55394 -63.84504 12023 ft 329 kts 232°
2026-05-03 22:47 -30.56827 -63.86578 12014 ft 330 kts 232°
2026-05-03 22:47 -30.58261 -63.88653 12022 ft 330 kts 232°
2026-05-03 22:47 -30.59696 -63.90733 12022 ft 330 kts 232°
2026-05-03 22:47 -30.61126 -63.92810 12016 ft 330 kts 232°
2026-05-03 22:48 -30.62556 -63.94888 12022 ft 330 kts 232°
2026-05-03 22:48 -30.63985 -63.96967 12017 ft 329 kts 232°
2026-05-03 22:48 -30.65415 -63.99051 12025 ft 330 kts 232°
2026-05-03 22:48 -30.66844 -64.01133 12023 ft 329 kts 232°
2026-05-03 22:49 -30.68273 -64.03218 12009 ft 329 kts 232°
2026-05-03 22:49 -30.69703 -64.05300 12020 ft 330 kts 232°
2026-05-03 22:49 -30.71133 -64.07392 12021 ft 331 kts 232°
2026-05-03 22:49 -30.72562 -64.09490 12017 ft 331 kts 232°
2026-05-03 22:50 -30.73990 -64.11593 12021 ft 331 kts 232°
2026-05-03 22:50 -30.75396 -64.13667 12011 ft 331 kts 232°
2026-05-03 22:50 -30.76819 -64.15765 12022 ft 331 kts 232°
2026-05-03 22:50 -30.78245 -64.17872 12009 ft 331 kts 233°
2026-05-03 22:51 -30.79666 -64.19974 12026 ft 331 kts 233°
2026-05-03 22:51 -30.81084 -64.22076 12019 ft 330 kts 233°
2026-05-03 22:51 -30.82502 -64.24180 12015 ft 330 kts 233°
2026-05-03 22:51 -30.83920 -64.26290 12017 ft 330 kts 233°
2026-05-03 22:52 -30.85335 -64.28395 12003 ft 330 kts 233°
2026-05-03 22:52 -30.86752 -64.30505 12016 ft 330 kts 233°
2026-05-03 22:52 -30.88160 -64.32612 12001 ft 330 kts 233°
2026-05-03 22:52 -30.89574 -64.34723 12007 ft 330 kts 233°
2026-05-03 22:53 -30.90985 -64.36834 12012 ft 330 kts 233°
2026-05-03 22:53 -30.92392 -64.38938 12000 ft 329 kts 233°
2026-05-03 22:53 -30.93798 -64.41042 12006 ft 328 kts 233°
2026-05-03 22:53 -30.95200 -64.43139 12001 ft 328 kts 233°
2026-05-03 22:54 -30.96596 -64.45239 12012 ft 328 kts 233°
2026-05-03 22:54 -30.97992 -64.47338 11793 ft 328 kts 233°
2026-05-03 22:54 -30.99387 -64.49439 11442 ft 327 kts 233°
2026-05-03 22:54 -31.00776 -64.51534 11120 ft 327 kts 233°
2026-05-03 22:55 -31.02163 -64.53631 11016 ft 327 kts 233°
2026-05-03 22:55 -31.03551 -64.55730 11000 ft 327 kts 233°
2026-05-03 22:55 -31.04937 -64.57828 10997 ft 327 kts 233°
2026-05-03 22:55 -31.06323 -64.59925 11015 ft 327 kts 233°
2026-05-03 22:56 -31.07724 -64.62035 11000 ft 329 kts 233°
2026-05-03 22:56 -31.09129 -64.64145 10997 ft 329 kts 233°
2026-05-03 22:56 -31.10513 -64.66236 10994 ft 330 kts 233°
2026-05-03 22:56 -31.11917 -64.68357 10993 ft 330 kts 233°
2026-05-03 22:57 -31.13321 -64.70473 10995 ft 330 kts 233°
2026-05-03 22:57 -31.14724 -64.72584 10992 ft 329 kts 233°
2026-05-03 22:57 -31.16143 -64.74676 10987 ft 329 kts 229°
2026-05-03 22:57 -31.17960 -64.76296 10989 ft 332 kts 207°
2026-05-03 22:58 -31.20187 -64.77014 10988 ft 337 kts 186°
2026-05-03 22:58 -31.22532 -64.76735 10946 ft 342 kts 168°
2026-05-03 22:58 -31.24825 -64.75924 10627 ft 344 kts 164°
2026-05-03 22:58 -31.27086 -64.75021 10276 ft 341 kts 163°
2026-05-03 22:59 -31.29309 -64.74119 10040 ft 338 kts 163°
2026-05-03 22:59 -31.31548 -64.73229 9999 ft 341 kts 163°
2026-05-03 22:59 -31.33781 -64.72332 9985 ft 331 kts 163°
2026-05-03 22:59 -31.35875 -64.71466 9978 ft 309 kts 163°
2026-05-03 23:00 -31.37872 -64.70642 9991 ft 301 kts 164°
2026-05-03 23:00 -31.39847 -64.69819 9992 ft 302 kts 163°
2026-05-03 23:00 -31.41799 -64.69010 9995 ft 302 kts 163°
2026-05-03 23:00 -31.43781 -64.68208 9987 ft 301 kts 164°
2026-05-03 23:01 -31.45758 -64.67393 9993 ft 302 kts 163°
2026-05-03 23:01 -31.47741 -64.66587 9876 ft 302 kts 163°
2026-05-03 23:01 -31.49728 -64.65787 9513 ft 302 kts 162°
2026-05-03 23:01 -31.51572 -64.64631 9126 ft 304 kts 140°
2026-05-03 23:02 -31.52865 -64.62683 8759 ft 305 kts 115°
2026-05-03 23:02 -31.53580 -64.60344 8401 ft 306 kts 105°
2026-05-03 23:02 -31.54142 -64.57937 8004 ft 305 kts 103°
2026-05-03 23:02 -31.54690 -64.55539 7617 ft 303 kts 103°
2026-05-03 23:03 -31.55235 -64.53169 7246 ft 299 kts 103°
2026-05-03 23:03 -31.55763 -64.50826 7019 ft 296 kts 103°
2026-05-03 23:03 -31.56288 -64.48493 6981 ft 295 kts 103°
2026-05-03 23:03 -31.56803 -64.46167 6984 ft 295 kts 103°
2026-05-03 23:04 -31.57323 -64.43841 6810 ft 295 kts 103°
2026-05-03 23:04 -31.57849 -64.41515 6505 ft 295 kts 103°
2026-05-03 23:04 -31.58381 -64.39207 6165 ft 292 kts 103°
2026-05-03 23:04 -31.58908 -64.36924 6005 ft 289 kts 103°
2026-05-03 23:05 -31.59442 -64.34652 5984 ft 290 kts 103°
2026-05-03 23:05 -31.60017 -64.32363 5993 ft 294 kts 103°
2026-05-03 23:05 -31.60595 -64.30055 5992 ft 296 kts 103°
2026-05-03 23:05 -31.61172 -64.27735 5988 ft 296 kts 103°
2026-05-03 23:06 -31.61737 -64.25450 5992 ft 295 kts 103°
2026-05-03 23:06 -31.62312 -64.23141 5997 ft 295 kts 103°
2026-05-03 23:06 -31.62887 -64.20826 5995 ft 295 kts 103°
2026-05-03 23:06 -31.63451 -64.18512 5999 ft 295 kts 103°
2026-05-03 23:07 -31.63888 -64.16160 5991 ft 292 kts 88°
2026-05-03 23:07 -31.63597 -64.13852 5997 ft 283 kts 68°
2026-05-03 23:07 -31.62928 -64.11687 5994 ft 282 kts 64°
2026-05-03 23:07 -31.62197 -64.09548 6001 ft 282 kts 63°
2026-05-03 23:08 -31.61468 -64.07434 5999 ft 276 kts 63°
2026-05-03 23:08 -31.60752 -64.05365 5999 ft 272 kts 63°
2026-05-03 23:08 -31.60061 -64.03350 5988 ft 258 kts 63°
2026-05-03 23:08 -31.59432 -64.01454 5962 ft 244 kts 63°
2026-05-03 23:09 -31.58827 -63.99607 5697 ft 243 kts 63°
2026-05-03 23:09 -31.58226 -63.97755 5420 ft 243 kts 63°
2026-05-03 23:09 -31.57608 -63.95920 5126 ft 239 kts 56°
2026-05-03 23:09 -31.56540 -63.94557 5017 ft 222 kts 24°
2026-05-03 23:10 -31.55100 -63.94147 5006 ft 212 kts 353°
2026-05-03 23:10 -31.53672 -63.94524 5008 ft 211 kts 342°
2026-05-03 23:10 -31.52267 -63.95022 5004 ft 211 kts 342°
2026-05-03 23:10 -31.50860 -63.95529 5005 ft 212 kts 342°
2026-05-03 23:11 -31.49524 -63.96239 5007 ft 212 kts 329°
2026-05-03 23:11 -31.48357 -63.97269 4994 ft 205 kts 318°
2026-05-03 23:11 -31.47434 -63.98475 4984 ft 195 kts 313°
2026-05-03 23:11 -31.46608 -63.99675 4847 ft 183 kts 310°
2026-05-03 23:12 -31.46118 -64.01010 4697 ft 179 kts 287°
2026-05-03 23:12 -31.45978 -64.02466 4564 ft 181 kts 282°
2026-05-03 23:12 -31.45861 -64.03919 4441 ft 181 kts 285°
2026-05-03 23:12 -31.45632 -64.05357 4323 ft 180 kts 289°
2026-05-03 23:13 -31.45308 -64.06780 4203 ft 181 kts 291°
2026-05-03 23:13 -31.44979 -64.08212 4073 ft 182 kts 291°
2026-05-03 23:13 -31.44635 -64.09648 3945 ft 184 kts 290°
2026-05-03 23:13 -31.44268 -64.11091 3824 ft 186 kts 291°
2026-05-03 23:14 -31.43898 -64.12530 3714 ft 185 kts 291°
2026-05-03 23:14 -31.43528 -64.13977 3614 ft 185 kts 291°
2026-05-03 23:14 -31.43189 -64.15420 3596 ft 183 kts 290°
2026-05-03 23:14 -31.42861 -64.16859 3556 ft 183 kts 291°
2026-05-03 23:15 -31.42455 -64.18258 3513 ft 182 kts 300°
2026-05-03 23:15 -31.41754 -64.19454 3457 ft 169 kts 320°
2026-05-03 23:15 -31.40872 -64.20188 3252 ft 146 kts 338°
2026-05-03 23:15 -31.39944 -64.20563 2899 ft 137 kts 352°
2026-05-03 23:16 -31.39002 -64.20684 2707 ft 136 kts
2026-05-03 23:16 -31.38052 -64.20696 2434 ft 136 kts
2026-05-03 23:16 -31.37092 -64.20723 2275 ft 138 kts
2026-05-03 23:16 -31.36141 -64.20732 2145 ft 135 kts
2026-05-03 23:17 -31.35203 -64.20762 1978 ft 134 kts 360°
2026-05-03 23:17 -31.34267 -64.20789 1875 ft 135 kts
2026-05-03 23:17 -31.33309 -64.20791 1741 ft 140 kts
2026-05-03 23:17 -31.32344 -64.20811 1567 ft 136 kts
2026-05-03 23:18 -31.31487 -64.20825 1562 ft 108 kts 359°
2026-05-03 23:18 -31.30918 -64.20837 1575 ft 56 kts
2026-05-03 23:18 -31.30682 -64.20829 1583 ft 19 kts
2026-05-03 23:18 -31.30641 -64.20833 1585 ft 1 kts 282°
2026-05-03 23:19 -31.30648 -64.20851 1585 ft 10 kts 237°
2026-05-03 23:19 -31.30718 -64.20859 1583 ft 24 kts 170°
2026-05-03 23:19 -31.30958 -64.20838 1574 ft 37 kts 178°
2026-05-03 23:19 -31.31191 -64.20831 1568 ft 34 kts 179°
2026-05-03 23:20 -31.31427 -64.20828 1563 ft 30 kts 179°
2026-05-03 23:20 -31.31483 -64.20858 1562 ft 4 kts 269°
2026-05-03 23:20 -31.31478 -64.20881 1563 ft 2 kts 284°
2026-05-03 23:20 -31.31477 -64.20889 1563 ft 1 kts 285°
2026-05-03 23:21 -31.31465 -64.20955 1565 ft 9 kts 273°
2026-05-03 23:21 -31.31466 -64.21001 1566 ft 4 kts 265°
2026-05-03 23:21 -31.31470 -64.21034 1568 ft 4 kts 255°
2026-05-03 23:21 -31.31488 -64.21065 1566 ft 5 kts 217°
2026-05-03 23:22 -31.31559 -64.21089 1564 ft 1 kts 212°
2026-05-03 23:22 -31.31566 -64.21109 1564 ft 4 kts 256°
2026-05-03 23:22 -31.31576 -64.21146 1564 ft 5 kts 251°
2026-05-03 23:23 -31.31581 -64.21164 1564 ft 1 kts 250°
2026-05-03 23:23 -31.31582 -64.21167 1564 ft 0 kts 250°